Home > Weather > Mesa > Past weeks

Flag for USA Past Weather in Mesa, Arizona, USA — Yesterday and Last 2 Weeks

Now
86 °F

Sunny.


Feels Like: 83 °F
Forecast: 61 / 87 °F
Wind: 7 mph from West

Location: Williams Gateway Airport

Current Time: May 24, 2016 at 6:34:00 PM

Latest Report: May 24, 2016 at 4:52 PM


Visibility: 45 mi

Pressure: 29.87 "Hg

Humidity: 12%

Dew Point: 28 °F

Location of MesaLocation

Past Weather in Mesa — Graph

°F

Mesa Temperature Yesterday

Maximum temperature yesterday: 88 °F (at 3:50 PM)
Minimum temperature yesterday: 59 °F (at 4:15 AM)
Average temperature yesterday: 72 °F

High & Low Weather Summary for the Past Weeks

 TemperatureHumidityPressure
High100 °F (May 13, 2:47 PM)60% (May 19, 1:35 AM)30.03 "Hg (May 19, 1:35 AM)
Low57 °F (May 10, 4:50 AM)7% (May 12, 12:50 PM)29.68 "Hg (May 15, 4:50 PM)
Average75 °F26%29.86 "Hg
* Reported May 9 4:47 PM — May 24 4:52 PM, Mesa, Weather by CustomWeather, © 2016

Note: Actual official high and low records may vary slightly from our data, if they occured in-between our weather recording intervals... More about our weather records

Advertising

Mesa Weather History for the Previous 24 Hours

Scroll right to see more
 ConditionsComfort  
Time TempWeatherWind HumidityBarometerVisibility
4:52 PM
Tue, May 24
86 °FSunny.7 mph12%29.87 "Hg45 mi
3:47 PM88 °FSunny.9 mph11%29.87 "Hg45 mi
2:47 PM86 °FSunny.7 mph11%29.88 "Hg45 mi
1:47 PM84 °FSunny.12 mph13%29.90 "Hg45 mi
12:47 PM82 °FSunny.8 mph13%29.90 "HgN/A
11:47 AM81 °FSunny.6 mph15%29.91 "Hg45 mi
10:47 AM79 °FSunny.9 mph16%29.92 "Hg45 mi
9:50 AM77 °FSunny.8 mph18%29.92 "Hg45 mi
8:47 AM73 °FSunny.7 mph25%29.91 "Hg45 mi
7:47 AM70 °FSunny.9 mph27%29.90 "Hg45 mi
6:49 AM66 °FSunny.6 mph26%29.88 "Hg45 mi
5:47 AM61 °FSunny.7 mph31%29.86 "Hg45 mi
5:00 AM61 °FClear.6 mph29%29.85 "Hg20 mi
4:35 AM63 °FClear.5 mph30%29.84 "Hg10 mi
4:15 AM61 °FClear.6 mph31%29.83 "Hg10 mi
3:55 AM63 °FClear.6 mph30%29.83 "Hg10 mi
3:35 AM68 °FClear.9 mph23%29.83 "Hg10 mi
3:15 AM68 °FClear.9 mph23%29.83 "Hg10 mi
2:55 AM68 °FClear.6 mph21%29.82 "Hg10 mi
2:35 AM66 °FClear.6 mph22%29.82 "Hg10 mi
2:15 AM68 °FClear.6 mph23%29.81 "Hg10 mi
1:55 AM68 °FClear.8 mph23%29.80 "Hg10 mi
1:35 AM68 °FClear.5 mph18%29.80 "Hg10 mi
1:15 AM72 °FClear.7 mph16%29.80 "Hg10 mi
12:55 AM72 °FClear.12 mph15%29.80 "Hg10 mi
12:35 AM73 °FClear.14 mph14%29.80 "Hg10 mi
12:15 AM72 °FClear.No wind20%29.80 "Hg10 mi
11:47 PM
Mon, May 23
72 °FClear.3 mph22%29.79 "Hg20 mi
10:47 PM73 °FClear.7 mph20%29.79 "Hg20 mi
9:47 PM75 °FClear.3 mph16%29.78 "Hg20 mi
8:47 PM81 °FClear.6 mph14%29.75 "Hg45 mi
7:47 PM82 °FClear.6 mph12%29.73 "Hg20 mi
6:47 PM86 °FSunny.7 mph11%29.72 "Hg45 mi
Weather by CustomWeather, © 2016

See weather overviewHow to use our weather pages